Location: Castiglione Fibocchi
(43.5333°N, 11.7667°E)
Time: 10:18:19
(UTC+00:00)

Cosmos 990 Rocket - Pass Details

Date: 15 August 2020
Orbit: 747 x 768 km, 74.0° (Epoch: 19 September)

Event Time Altitude Azimuth Distance (km) Brightness Sun altitude
Exits shadow 00:29:54 57° 23° (NNE) 884 4.5 -30.2°
Drops below altitude 10° 00:34:00 10° 21° (NNE) 2,282 7.4 -29.9°
Sets 00:36:22 0° 21° (NNE) 3,208 8.4 -29.7°
